Location: *
(48.4333°N, 5.0333°W)
Time: 17:01:21
(UTC+00:00)

STARLINK-2646 - Pass Details

Date: 31 July 2021
Orbit: 546 x 548 km, 53.1° (Epoch: 28 September)

Event Time Altitude Azimuth Distance (km) Brightness Sun altitude
Rises 20:32:23 0° 293° (WNW) 2,719 9.2 -5.6°
Reaches altitude 10° 20:34:48 10° 283° (WNW) 1,821 7.6 -5.9°
Maximum altitude 20:38:25 30° 222° (SW) 999 5.0 -6.4°
Drops below altitude 10° 20:42:02 10° 160° (SSE) 1,811 5.8 -6.9°
Enters shadow 20:42:57 - 155° (SSE) 2,140 6.1 -7.0°
